Time,TemperatureF,DewpointF,PressureIn,WindDirection,WindDirectionDegrees,WindSpeedMPH,WindSpeedGustMPH,Humidity,HourlyPrecipIn,Conditions,Clouds,dailyrainin,SoftwareType,DateUTC
2013-01-31 00:00:00,42.5,39.2,24.80,North,0,0.0,0.0,88,0.00,,---,0.00,VWS V13.01,2013-01-31 08:00:00,
2013-01-31 00:06:00,42.5,39.2,24.80,North,0,0.0,0.0,88,0.00,,---,0.00,VWS V13.01,2013-01-31 08:06:00,
2013-01-31 00:11:00,42.4,39.1,24.80,NE,54,0.0,0.0,88,0.00,,---,0.00,VWS V13.01,2013-01-31 08:11:00,
2013-01-31 00:16:00,42.3,39.0,24.80,NE,53,0.0,0.0,88,0.00,,---,0.00,VWS V13.01,2013-01-31 08:16:00,
2013-01-31 00:21:00,42.2,38.9,24.80,NE,54,0.0,0.0,88,0.00,,---,0.00,VWS V13.01,2013-01-31 08:21:00,
2013-01-31 00:26:00,42.0,38.7,24.80,NE,54,0.0,0.0,88,0.00,,---,0.00,VWS V13.01,2013-01-31 08:26:00,
2013-01-31 00:31:00,41.9,38.6,24.80,NE,54,0.0,0.0,88,0.00,,---,0.00,VWS V13.01,2013-01-31 08:31:00,
2013-01-31 00:36:00,41.7,38.4,24.80,NE,53,0.0,0.0,88,0.00,,---,0.00,VWS V13.01,2013-01-31 08:36:00,
2013-01-31 00:41:00,41.6,38.3,24.80,NE,54,0.0,0.0,88,0.00,,---,0.00,VWS V13.01,2013-01-31 08:41:00,
2013-01-31 00:46:00,41.6,38.3,24.80,NE,54,0.0,0.0,88,0.00,,---,0.00,VWS V13.01,2013-01-31 08:46:00,
2013-01-31 00:51:00,41.5,38.2,24.80,NE,53,0.0,0.0,88,0.00,,---,0.00,VWS V13.01,2013-01-31 08:51:00,
2013-01-31 00:56:00,41.6,38.6,24.80,NE,53,0.0,1.0,89,0.00,,---,0.00,VWS V13.01,2013-01-31 08:56:00,
2013-01-31 01:00:00,41.6,38.6,24.80,NE,53,0.0,1.0,89,0.00,,---,0.00,VWS V13.01,2013-01-31 09:00:00,
2013-01-31 01:01:00,41.6,38.6,24.80,NE,54,0.0,1.0,89,0.00,,---,0.00,VWS V13.01,2013-01-31 09:01:00,
2013-01-31 01:06:00,41.6,38.6,24.80,NE,54,0.0,0.0,89,0.00,,---,0.00,VWS V13.01,2013-01-31 09:06:00,
2013-01-31 01:11:00,41.5,38.5,24.80,NE,54,0.0,0.0,89,0.00,,---,0.00,VWS V13.01,2013-01-31 09:11:00,
2013-01-31 01:16:00,41.6,38.6,24.80,NE,53,0.0,0.0,89,0.00,,---,0.00,VWS V13.01,2013-01-31 09:16:00,
2013-01-31 01:21:00,41.5,38.5,24.80,NE,54,0.0,0.0,89,0.00,,---,0.00,VWS V13.01,2013-01-31 09:21:00,
2013-01-31 01:26:00,41.3,38.3,24.77,NE,54,0.0,0.0,89,0.00,,---,0.00,VWS V13.01,2013-01-31 09:26:00,
2013-01-31 01:31:00,41.3,38.3,24.77,NE,54,0.0,0.0,89,0.00,,---,0.00,VWS V13.01,2013-01-31 09:31:00,
2013-01-31 01:36:00,41.2,38.2,24.74,NE,53,0.0,0.0,89,0.00,,---,0.00,VWS V13.01,2013-01-31 09:36:00,
2013-01-31 01:41:00,41.1,38.1,24.74,NE,53,0.0,0.0,89,0.00,,---,0.00,VWS V13.01,2013-01-31 09:41:00,
2013-01-31 01:46:00,41.1,38.1,24.77,NE,54,0.0,0.0,89,0.00,,---,0.00,VWS V13.01,2013-01-31 09:46:00,
2013-01-31 01:51:00,41.0,38.0,24.76,NE,54,0.0,0.0,89,0.00,,---,0.00,VWS V13.01,2013-01-31 09:51:00,
2013-01-31 01:56:00,40.9,37.9,24.75,NE,53,0.0,0.0,89,0.00,,---,0.00,VWS V13.01,2013-01-31 09:56:00,
2013-01-31 02:00:00,40.9,37.9,24.74,NE,54,0.0,0.0,89,0.00,,---,0.00,VWS V13.01,2013-01-31 10:00:00,
2013-01-31 02:01:00,40.9,37.9,24.74,NE,53,0.0,0.0,89,0.00,,---,0.00,VWS V13.01,2013-01-31 10:01:00,
2013-01-31 02:06:00,41.0,38.3,24.74,NE,54,0.0,0.0,90,0.00,,---,0.00,VWS V13.01,2013-01-31 10:06:00,
2013-01-31 02:11:00,41.0,38.3,24.73,NE,54,0.0,0.0,90,0.00,,---,0.00,VWS V13.01,2013-01-31 10:11:00,
2013-01-31 02:16:00,41.0,38.3,24.73,NE,54,0.0,0.0,90,0.00,,---,0.00,VWS V13.01,2013-01-31 10:16:00,
2013-01-31 02:21:00,40.9,37.9,24.73,NE,53,0.0,0.0,89,0.00,,---,0.00,VWS V13.01,2013-01-31 10:21:00,
2013-01-31 02:26:00,40.6,37.6,24.73,NE,54,0.0,0.0,89,0.00,,---,0.00,VWS V13.01,2013-01-31 10:26:00,
2013-01-31 02:31:00,40.3,37.3,24.72,NE,54,0.0,0.0,89,0.00,,---,0.00,VWS V13.01,2013-01-31 10:31:00,
2013-01-31 02:36:00,40.1,37.1,24.72,NE,54,0.0,0.0,89,0.00,,---,0.00,VWS V13.01,2013-01-31 10:36:00,
2013-01-31 02:41:00,40.0,37.0,24.72,NE,54,0.0,0.0,89,0.00,,---,0.00,VWS V13.01,2013-01-31 10:41:00,
2013-01-31 02:46:00,40.0,37.3,24.72,NE,54,0.0,0.0,90,0.00,,---,0.00,VWS V13.01,2013-01-31 10:46:00,
2013-01-31 02:50:00,39.9,36.9,24.71,NE,54,0.0,0.0,89,0.00,,---,0.00,VWS V13.01,2013-01-31 10:50:00,
2013-01-31 02:55:00,39.8,36.8,24.72,NE,54,0.0,0.0,89,0.00,,---,0.00,VWS V13.01,2013-01-31 10:55:00,
2013-01-31 03:00:00,39.7,36.7,24.71,NE,53,0.0,0.0,89,0.00,,---,0.00,VWS V13.01,2013-01-31 11:00:00,
2013-01-31 03:05:00,39.7,37.0,24.71,NE,53,0.0,0.0,90,0.00,,---,0.00,VWS V13.01,2013-01-31 11:05:00,
2013-01-31 03:10:00,39.7,37.0,24.71,NE,54,0.0,0.0,90,0.00,,---,0.00,VWS V13.01,2013-01-31 11:10:00,
2013-01-31 03:15:00,39.7,37.0,24.71,NE,54,0.0,0.0,90,0.00,,---,0.00,VWS V13.01,2013-01-31 11:15:00,
2013-01-31 03:20:00,39.6,36.9,24.70,NE,54,0.0,0.0,90,0.00,,---,0.00,VWS V13.01,2013-01-31 11:20:00,
2013-01-31 03:25:00,39.5,36.8,24.70,NE,53,0.0,0.0,90,0.00,,---,0.00,VWS V13.01,2013-01-31 11:25:00,
2013-01-31 03:30:00,39.4,36.7,24.70,NE,54,0.0,0.0,90,0.00,,---,0.00,VWS V13.01,2013-01-31 11:30:00,
2013-01-31 03:35:00,39.4,36.7,24.70,NE,54,0.0,0.0,90,0.00,,---,0.00,VWS V13.01,2013-01-31 11:35:00,
2013-01-31 03:40:00,39.6,36.9,24.70,NE,54,0.0,0.0,90,0.00,,---,0.00,VWS V13.01,2013-01-31 11:40:00,
2013-01-31 03:45:00,39.6,36.9,24.70,NE,54,0.0,0.0,90,0.00,,---,0.00,VWS V13.01,2013-01-31 11:45:00,
2013-01-31 03:50:00,39.6,36.9,24.70,NE,53,0.0,0.0,90,0.00,,---,0.00,VWS V13.01,2013-01-31 11:50:00,
2013-01-31 03:55:00,39.7,37.0,24.69,NE,54,0.0,0.0,90,0.00,,---,0.00,VWS V13.01,2013-01-31 11:55:00,
2013-01-31 04:00:00,39.7,37.0,24.69,NE,54,0.0,1.0,90,0.00,,---,0.00,VWS V13.01,2013-01-31 12:00:00,
2013-01-31 04:05:00,39.6,36.9,24.69,NE,53,0.0,0.0,90,0.00,,---,0.00,VWS V13.01,2013-01-31 12:05:00,
2013-01-31 04:10:00,39.5,36.8,24.69,NE,54,0.0,0.0,90,0.00,,---,0.00,VWS V13.01,2013-01-31 12:10:00,
2013-01-31 04:15:00,39.3,36.6,24.69,NE,53,0.0,0.0,90,0.00,,---,0.00,VWS V13.01,2013-01-31 12:15:00,
2013-01-31 04:20:00,39.4,36.7,24.69,NE,53,0.0,0.0,90,0.00,,---,0.00,VWS V13.01,2013-01-31 12:20:00,
2013-01-31 04:25:00,39.5,36.8,24.69,NE,54,0.0,0.0,90,0.00,,---,0.00,VWS V13.01,2013-01-31 12:25:00,
2013-01-31 04:30:00,39.3,36.6,24.69,NE,53,0.0,0.0,90,0.00,,---,0.00,VWS V13.01,2013-01-31 12:30:00,
2013-01-31 04:35:00,39.2,36.5,24.69,NE,53,0.0,0.0,90,0.00,,---,0.00,VWS V13.01,2013-01-31 12:35:00,
2013-01-31 04:40:00,39.3,36.6,24.68,NE,54,0.0,0.0,90,0.00,,---,0.00,VWS V13.01,2013-01-31 12:40:00,
2013-01-31 04:45:00,39.5,36.8,24.69,NE,54,0.0,0.0,90,0.00,,---,0.00,VWS V13.01,2013-01-31 12:45:00,
2013-01-31 04:50:00,39.6,36.9,24.68,NE,54,0.0,0.0,90,0.00,,---,0.00,VWS V13.01,2013-01-31 12:50:00,
2013-01-31 04:55:00,39.5,36.8,24.67,NE,54,0.0,0.0,90,0.00,,---,0.00,VWS V13.01,2013-01-31 12:55:00,
2013-01-31 05:00:00,39.3,36.6,24.68,NE,53,0.0,0.0,90,0.00,,---,0.00,VWS V13.01,2013-01-31 13:00:00,
2013-01-31 05:05:00,39.1,36.4,24.68,NE,54,0.0,0.0,90,0.00,,---,0.00,VWS V13.01,2013-01-31 13:05:00,
2013-01-31 05:10:00,38.9,36.2,24.67,NE,54,0.0,0.0,90,0.00,,---,0.00,VWS V13.01,2013-01-31 13:10:00,
2013-01-31 05:15:00,38.8,36.1,24.67,NE,54,0.0,0.0,90,0.00,,---,0.00,VWS V13.01,2013-01-31 13:15:00,
2013-01-31 05:20:00,38.7,36.0,24.67,NE,53,0.0,0.0,90,0.00,,---,0.00,VWS V13.01,2013-01-31 13:20:00,
2013-01-31 05:25:00,39.0,36.3,24.67,NE,53,0.0,0.0,90,0.00,,---,0.00,VWS V13.01,2013-01-31 13:25:00,
2013-01-31 05:30:00,39.1,36.4,24.67,NE,54,0.0,0.0,90,0.00,,---,0.00,VWS V13.01,2013-01-31 13:30:00,
2013-01-31 05:35:00,39.2,36.5,24.66,NE,54,0.0,0.0,90,0.00,,---,0.00,VWS V13.01,2013-01-31 13:35:00,
2013-01-31 05:40:00,39.1,36.4,24.65,NE,54,0.0,0.0,90,0.00,,---,0.00,VWS V13.01,2013-01-31 13:40:00,
2013-01-31 05:45:00,39.2,36.5,24.65,NE,53,0.0,0.0,90,0.00,,---,0.00,VWS V13.01,2013-01-31 13:45:00,
2013-01-31 05:50:00,39.1,36.4,24.65,NE,53,0.0,0.0,90,0.00,,---,0.00,VWS V13.01,2013-01-31 13:50:00,
2013-01-31 05:55:00,38.9,36.2,24.65,NE,54,0.0,0.0,90,0.00,,---,0.00,VWS V13.01,2013-01-31 13:55:00,
2013-01-31 06:00:00,38.7,36.0,24.65,NE,54,0.0,0.0,90,0.00,,---,0.00,VWS V13.01,2013-01-31 14:00:00,
2013-01-31 06:05:00,38.6,35.9,24.65,NE,54,0.0,0.0,90,0.00,,---,0.00,VWS V13.01,2013-01-31 14:05:00,
2013-01-31 06:10:00,38.5,35.8,24.67,NE,53,0.0,0.0,90,0.00,,---,0.00,VWS V13.01,2013-01-31 14:10:00,
2013-01-31 06:15:00,38.4,35.7,24.72,NE,53,0.0,0.0,90,0.00,,---,0.00,VWS V13.01,2013-01-31 14:15:00,
2013-01-31 06:20:00,38.3,35.6,24.75,NE,54,0.0,0.0,90,0.00,,---,0.00,VWS V13.01,2013-01-31 14:20:00,
2013-01-31 06:25:00,38.2,35.5,24.80,NE,54,0.0,0.0,90,0.00,,---,0.00,VWS V13.01,2013-01-31 14:25:00,
2013-01-31 06:30:00,38.1,35.4,24.80,NE,53,0.0,0.0,90,0.00,,---,0.00,VWS V13.01,2013-01-31 14:30:00,
2013-01-31 06:35:00,38.2,35.5,24.80,NE,53,0.0,0.0,90,0.00,,---,0.00,VWS V13.01,2013-01-31 14:35:00,
2013-01-31 06:40:00,38.2,35.8,24.80,NE,54,0.0,0.0,91,0.00,,---,0.00,VWS V13.01,2013-01-31 14:40:00,
2013-01-31 06:45:00,38.1,35.4,24.80,NE,54,0.0,0.0,90,0.00,,---,0.00,VWS V13.01,2013-01-31 14:45:00,
2013-01-31 06:50:00,38.0,35.3,24.80,NE,53,0.0,0.0,90,0.00,,---,0.00,VWS V13.01,2013-01-31 14:50:00,
2013-01-31 06:55:00,37.9,35.2,24.80,NE,54,0.0,0.0,90,0.00,,---,0.00,VWS V13.01,2013-01-31 14:55:00,
2013-01-31 07:00:00,37.8,35.1,24.80,NE,54,0.0,0.0,90,0.00,,---,0.00,VWS V13.01,2013-01-31 15:00:00,
2013-01-31 07:05:00,37.6,34.9,24.80,NE,54,0.0,0.0,90,0.00,,---,0.00,VWS V13.01,2013-01-31 15:05:00,
2013-01-31 07:10:00,37.6,34.9,24.80,NE,54,0.0,0.0,90,0.00,,---,0.00,VWS V13.01,2013-01-31 15:10:00,
2013-01-31 07:15:00,37.9,35.5,24.80,NE,53,0.0,0.0,91,0.00,,---,0.00,VWS V13.01,2013-01-31 15:15:00,
2013-01-31 07:20:00,38.1,35.7,24.80,NE,54,0.0,0.0,91,0.00,,---,0.00,VWS V13.01,2013-01-31 15:20:00,
2013-01-31 07:25:00,38.1,35.7,24.80,NE,53,0.0,0.0,91,0.00,,---,0.00,VWS V13.01,2013-01-31 15:25:00,
2013-01-31 07:30:00,38.0,35.3,24.80,NE,54,0.0,0.0,90,0.00,,---,0.00,VWS V13.01,2013-01-31 15:30:00,
2013-01-31 07:35:00,37.9,35.2,24.80,NE,54,0.0,0.0,90,0.00,,---,0.00,VWS V13.01,2013-01-31 15:35:00,
2013-01-31 07:40:00,37.8,35.1,24.80,NE,54,0.0,0.0,90,0.00,,---,0.00,VWS V13.01,2013-01-31 15:40:00,
2013-01-31 07:45:00,37.9,35.5,24.80,NE,54,0.0,0.0,91,0.00,,---,0.00,VWS V13.01,2013-01-31 15:45:00,
2013-01-31 07:50:00,38.1,35.7,24.80,NE,53,0.0,0.0,91,0.00,,---,0.00,VWS V13.01,2013-01-31 15:50:00,
2013-01-31 07:55:00,38.2,35.8,24.80,NE,53,0.0,0.0,91,0.00,,---,0.00,VWS V13.01,2013-01-31 15:55:00,
2013-01-31 08:00:00,38.2,35.8,24.80,NE,54,0.0,0.0,91,0.00,,---,0.00,VWS V13.01,2013-01-31 16:00:00,
2013-01-31 08:05:00,38.3,35.9,24.80,NE,54,0.0,0.0,91,0.00,,---,0.00,VWS V13.01,2013-01-31 16:05:00,
2013-01-31 08:10:00,38.6,36.2,24.80,NE,53,0.0,0.0,91,0.00,,---,0.00,VWS V13.01,2013-01-31 16:10:00,
2013-01-31 08:15:00,38.9,36.5,24.80,NE,53,0.0,0.0,91,0.00,,---,0.00,VWS V13.01,2013-01-31 16:15:00,
2013-01-31 08:20:00,39.0,36.6,24.80,NE,54,0.0,0.0,91,0.00,,---,0.00,VWS V13.01,2013-01-31 16:20:00,
2013-01-31 08:25:00,39.1,36.7,24.80,NE,54,0.0,0.0,91,0.00,,---,0.00,VWS V13.01,2013-01-31 16:25:00,
2013-01-31 08:30:00,39.4,37.0,24.80,NE,53,0.0,0.0,91,0.00,,---,0.00,VWS V13.01,2013-01-31 16:30:00,
2013-01-31 08:35:00,39.9,37.8,24.80,NE,53,0.0,0.0,92,0.00,,---,0.00,VWS V13.01,2013-01-31 16:35:00,
2013-01-31 08:40:00,40.3,38.2,24.80,NE,53,0.0,0.0,92,0.00,,---,0.00,VWS V13.01,2013-01-31 16:40:00,
2013-01-31 08:45:00,40.7,38.6,24.80,NE,54,0.0,0.0,92,0.00,,---,0.00,VWS V13.01,2013-01-31 16:45:00,
2013-01-31 08:50:00,41.2,39.1,24.80,NE,54,0.0,0.0,92,0.00,,---,0.00,VWS V13.01,2013-01-31 16:50:00,
2013-01-31 08:55:00,41.6,39.5,24.80,NE,54,0.0,0.0,92,0.00,,---,0.00,VWS V13.01,2013-01-31 16:55:00,
2013-01-31 09:00:00,42.2,40.0,24.80,NE,53,0.0,0.0,92,0.00,,---,0.00,VWS V13.01,2013-01-31 17:00:00,
2013-01-31 09:05:00,42.9,40.7,24.80,NE,54,0.0,0.0,92,0.00,,---,0.00,VWS V13.01,2013-01-31 17:05:00,
2013-01-31 09:10:00,43.4,41.5,24.80,NE,54,0.0,0.0,93,0.00,,---,0.00,VWS V13.01,2013-01-31 17:10:00,
2013-01-31 09:15:00,44.2,42.3,24.80,NE,53,0.0,0.0,93,0.00,,---,0.00,VWS V13.01,2013-01-31 17:15:00,
2013-01-31 09:20:00,44.8,42.9,24.80,NE,53,0.0,0.0,93,0.00,,---,0.00,VWS V13.01,2013-01-31 17:20:00,
2013-01-31 09:25:00,45.3,43.4,24.80,NE,54,0.0,0.0,93,0.00,,---,0.00,VWS V13.01,2013-01-31 17:25:00,
2013-01-31 09:30:00,45.7,43.8,24.80,NE,54,0.0,0.0,93,0.00,,---,0.00,VWS V13.01,2013-01-31 17:30:00,
2013-01-31 09:35:00,46.1,44.2,24.80,NE,53,0.0,0.0,93,0.00,,---,0.00,VWS V13.01,2013-01-31 17:35:00,
2013-01-31 09:40:00,46.5,44.6,24.80,NE,53,0.0,0.0,93,0.00,,---,0.00,VWS V13.01,2013-01-31 17:40:00,
2013-01-31 09:45:00,46.9,45.0,24.80,NE,53,0.0,0.0,93,0.00,,---,0.00,VWS V13.01,2013-01-31 17:45:00,
2013-01-31 09:50:00,47.2,45.3,24.80,NE,54,0.0,0.0,93,0.00,,---,0.00,VWS V13.01,2013-01-31 17:50:00,
2013-01-31 09:55:00,47.6,45.7,24.80,NE,54,0.0,0.0,93,0.00,,---,0.00,VWS V13.01,2013-01-31 17:55:00,
2013-01-31 10:00:00,48.1,45.9,24.80,NE,54,0.0,0.0,92,0.00,,---,0.00,VWS V13.01,2013-01-31 18:00:00,
2013-01-31 10:05:00,48.6,45.8,24.80,NE,53,0.0,1.0,90,0.00,,---,0.00,VWS V13.01,2013-01-31 18:05:00,
2013-01-31 10:10:00,49.1,45.4,24.80,NE,55,0.0,3.0,87,0.00,,---,0.00,VWS V13.01,2013-01-31 18:10:00,
2013-01-31 10:15:00,49.8,45.8,24.80,ENE,59,0.0,3.0,86,0.00,,---,0.00,VWS V13.01,2013-01-31 18:15:00,
2013-01-31 10:20:00,50.4,46.1,24.80,ENE,59,0.0,3.0,85,0.00,,---,0.00,VWS V13.01,2013-01-31 18:20:00,
2013-01-31 10:25:00,51.0,46.0,24.80,ENE,59,0.0,3.0,83,0.00,,---,0.00,VWS V13.01,2013-01-31 18:25:00,
2013-01-31 10:30:00,51.6,46.3,24.80,ENE,59,0.0,3.0,82,0.00,,---,0.00,VWS V13.01,2013-01-31 18:30:00,
2013-01-31 10:35:00,52.0,46.0,24.80,ENE,59,0.0,3.0,80,0.00,,---,0.00,VWS V13.01,2013-01-31 18:35:00,
2013-01-31 10:40:00,52.6,46.3,24.80,ENE,59,0.0,4.0,79,0.00,,---,0.00,VWS V13.01,2013-01-31 18:40:00,
2013-01-31 10:45:00,53.1,46.4,24.80,ENE,63,0.0,4.0,78,0.00,,---,0.00,VWS V13.01,2013-01-31 18:45:00,
2013-01-31 10:50:00,53.5,46.1,24.80,ENE,63,0.0,4.0,76,0.00,,---,0.00,VWS V13.01,2013-01-31 18:50:00,
2013-01-31 10:55:00,54.2,46.5,24.80,ENE,65,1.0,4.0,75,0.00,,---,0.00,VWS V13.01,2013-01-31 18:55:00,
2013-01-31 11:00:00,54.8,46.7,24.80,ENE,63,1.0,4.0,74,0.00,,---,0.00,VWS V13.01,2013-01-31 19:00:00,
2013-01-31 11:05:00,55.1,46.6,24.80,ENE,74,0.0,4.0,73,0.00,,---,0.00,VWS V13.01,2013-01-31 19:05:00,
2013-01-31 11:10:00,55.6,46.4,24.80,East,79,1.0,5.0,71,0.00,,---,0.00,VWS V13.01,2013-01-31 19:10:00,
2013-01-31 11:15:00,55.9,46.7,24.80,East,86,0.0,5.0,71,0.00,,---,0.00,VWS V13.01,2013-01-31 19:15:00,
2013-01-31 11:20:00,56.3,47.0,24.80,East,87,0.0,5.0,71,0.00,,---,0.00,VWS V13.01,2013-01-31 19:20:00,
2013-01-31 11:25:00,56.7,47.4,24.80,East,87,0.0,5.0,71,0.00,,---,0.00,VWS V13.01,2013-01-31 19:25:00,
2013-01-31 11:30:00,57.1,47.0,24.80,East,89,0.0,5.0,69,0.00,,---,0.00,VWS V13.01,2013-01-31 19:30:00,
2013-01-31 11:35:00,57.3,46.5,24.80,East,95,0.0,5.0,67,0.00,,---,0.00,VWS V13.01,2013-01-31 19:35:00,
2013-01-31 11:40:00,57.4,47.3,24.80,East,94,1.0,6.0,69,0.00,,---,0.00,VWS V13.01,2013-01-31 19:40:00,
2013-01-31 11:45:00,57.6,46.7,24.80,East,99,1.0,6.0,67,0.00,,---,0.00,VWS V13.01,2013-01-31 19:45:00,
2013-01-31 11:50:00,57.7,46.8,24.80,East,99,3.0,6.0,67,0.00,,---,0.00,VWS V13.01,2013-01-31 19:50:00,
2013-01-31 11:55:00,57.8,47.3,24.80,ESE,103,0.0,6.0,68,0.00,,---,0.00,VWS V13.01,2013-01-31 19:55:00,
2013-01-31 12:00:00,58.1,47.2,24.80,ESE,106,0.0,6.0,67,0.00,,---,0.00,VWS V13.01,2013-01-31 20:00:00,
2013-01-31 12:05:00,58.2,47.3,24.80,ENE,76,0.0,5.0,67,0.00,,---,0.00,VWS V13.01,2013-01-31 20:05:00,
2013-01-31 12:10:00,58.4,47.1,24.80,ENE,78,0.0,5.0,66,0.00,,---,0.00,VWS V13.01,2013-01-31 20:10:00,
2013-01-31 12:15:00,58.7,46.6,24.80,ESE,102,4.0,5.0,64,0.00,,---,0.00,VWS V13.01,2013-01-31 20:15:00,
2013-01-31 12:20:00,58.9,47.2,24.80,ESE,106,0.0,5.0,65,0.00,,---,0.00,VWS V13.01,2013-01-31 20:20:00,
2013-01-31 12:25:00,58.9,46.3,24.80,SE,126,7.0,11.0,63,0.00,,---,0.00,VWS V13.01,2013-01-31 20:25:00,
2013-01-31 12:30:00,58.9,46.8,24.80,East,85,5.0,11.0,64,0.00,,---,0.00,VWS V13.01,2013-01-31 20:30:00,
2013-01-31 12:35:00,59.0,46.8,24.80,ESE,122,1.0,12.0,64,0.00,,---,0.00,VWS V13.01,2013-01-31 20:35:00,
2013-01-31 12:40:00,59.1,46.5,24.80,ESE,113,2.0,12.0,63,0.00,,---,0.00,VWS V13.01,2013-01-31 20:40:00,
2013-01-31 12:45:00,59.2,46.2,24.80,SE,138,2.0,12.0,62,0.00,,---,0.00,VWS V13.01,2013-01-31 20:45:00,
2013-01-31 12:50:00,59.5,46.5,24.80,ESE,114,5.0,12.0,62,0.00,,---,0.00,VWS V13.01,2013-01-31 20:50:00,
2013-01-31 12:55:00,59.4,46.4,24.80,ESE,118,0.0,12.0,62,0.00,,---,0.00,VWS V13.01,2013-01-31 20:55:00,
2013-01-31 13:00:00,59.7,46.7,24.80,ESE,105,3.0,12.0,62,0.00,,---,0.00,VWS V13.01,2013-01-31 21:00:00,
2013-01-31 13:05:00,59.7,46.7,24.80,ESE,108,0.0,6.0,62,0.00,,---,0.00,VWS V13.01,2013-01-31 21:05:00,
2013-01-31 13:10:00,60.0,47.0,24.80,ESE,102,5.0,6.0,62,0.00,,---,0.00,VWS V13.01,2013-01-31 21:10:00,
2013-01-31 13:15:00,60.4,46.9,24.80,East,82,4.0,6.0,61,0.00,,---,0.00,VWS V13.01,2013-01-31 21:15:00,
2013-01-31 13:20:00,60.4,46.9,24.80,ESE,107,0.0,9.0,61,0.00,,---,0.00,VWS V13.01,2013-01-31 21:20:00,
2013-01-31 13:25:00,60.7,47.2,24.80,SE,136,0.0,9.0,61,0.00,,---,0.00,VWS V13.01,2013-01-31 21:25:00,
2013-01-31 13:30:00,60.9,47.4,24.80,East,86,4.0,9.0,61,0.00,,---,0.00,VWS V13.01,2013-01-31 21:30:00,
2013-01-31 13:35:00,61.1,47.6,24.80,ESE,114,0.0,9.0,61,0.00,,---,0.00,VWS V13.01,2013-01-31 21:35:00,
2013-01-31 13:40:00,61.3,47.3,24.80,ENE,76,4.0,9.0,60,0.00,,---,0.00,VWS V13.01,2013-01-31 21:40:00,
2013-01-31 13:45:00,61.3,47.3,24.80,ENE,78,0.0,9.0,60,0.00,,---,0.00,VWS V13.01,2013-01-31 21:45:00,
2013-01-31 13:50:00,61.2,47.2,24.80,East,98,2.0,9.0,60,0.00,,---,0.00,VWS V13.01,2013-01-31 21:50:00,
2013-01-31 13:55:00,61.2,47.7,24.80,East,99,2.0,9.0,61,0.00,,---,0.00,VWS V13.01,2013-01-31 21:55:00,
2013-01-31 14:00:00,61.6,47.2,24.80,SE,133,2.0,9.0,59,0.00,,---,0.00,VWS V13.01,2013-01-31 22:00:00,
2013-01-31 14:05:00,61.7,46.8,24.80,ESE,113,2.0,4.0,58,0.00,,---,0.00,VWS V13.01,2013-01-31 22:05:00,
2013-01-31 14:10:00,61.9,47.0,24.80,ESE,107,2.0,6.0,58,0.00,,---,0.00,VWS V13.01,2013-01-31 22:10:00,
2013-01-31 14:15:00,61.8,46.4,24.80,ESE,113,3.0,6.0,57,0.00,,---,0.00,VWS V13.01,2013-01-31 22:15:00,
2013-01-31 14:20:00,62.3,46.9,24.80,ENE,75,6.0,6.0,57,0.00,,---,0.00,VWS V13.01,2013-01-31 22:20:00,
2013-01-31 14:30:00,61.7,46.8,24.80,East,83,1.0,6.0,58,0.00,,---,0.00,VWS V13.01,2013-01-31 22:30:00,
2013-01-31 14:35:00,61.7,46.8,24.80,ENE,78,0.0,6.0,58,0.00,,---,0.00,VWS V13.01,2013-01-31 22:35:00,
2013-01-31 14:40:00,61.7,46.8,24.80,East,82,1.0,6.0,58,0.00,,---,0.00,VWS V13.01,2013-01-31 22:40:00,
2013-01-31 14:45:00,61.8,46.9,24.80,East,96,1.0,6.0,58,0.00,,---,0.00,VWS V13.01,2013-01-31 22:45:00,
2013-01-31 14:50:00,62.1,47.2,24.80,East,91,3.0,6.0,58,0.00,,---,0.00,VWS V13.01,2013-01-31 22:50:00,
2013-01-31 14:55:00,62.2,46.8,24.80,East,88,2.0,6.0,57,0.00,,---,0.00,VWS V13.01,2013-01-31 22:55:00,
2013-01-31 15:00:00,62.4,47.5,24.80,East,94,2.0,6.0,58,0.00,,---,0.00,VWS V13.01,2013-01-31 23:00:00,
2013-01-31 15:05:00,62.3,47.3,24.80,East,94,0.0,5.0,58,0.00,,---,0.00,VWS V13.01,2013-01-31 23:05:00,
2013-01-31 15:10:00,62.9,47.9,24.80,East,90,2.0,5.0,58,0.00,,---,0.00,VWS V13.01,2013-01-31 23:10:00,
2013-01-31 15:15:00,63.2,47.3,24.80,East,80,0.0,5.0,56,0.00,,---,0.00,VWS V13.01,2013-01-31 23:15:00,
2013-01-31 15:20:00,63.3,47.3,24.80,East,88,2.0,5.0,56,0.00,,---,0.00,VWS V13.01,2013-01-31 23:20:00,
2013-01-31 15:27:00,62.9,47.5,24.80,East,90,2.0,2.0,57,0.00,,---,0.00,VWS V13.01,2013-01-31 23:27:00,
2013-01-31 15:32:00,63.1,47.6,24.80,East,94,1.0,3.0,57,0.00,,---,0.00,VWS V13.01,2013-01-31 23:32:00,
2013-01-31 15:37:00,63.2,47.7,24.80,ESE,104,2.0,4.0,57,0.00,,---,0.00,VWS V13.01,2013-01-31 23:37:00,
2013-01-31 15:42:00,62.9,47.5,24.80,East,96,0.0,4.0,57,0.00,,---,0.00,VWS V13.01,2013-01-31 23:42:00,
2013-01-31 15:47:00,62.4,47.0,24.80,East,91,1.0,5.0,57,0.00,,---,0.00,VWS V13.01,2013-01-31 23:47:00,
2013-01-31 15:52:00,62.3,47.3,24.80,East,91,2.0,5.0,58,0.00,,---,0.00,VWS V13.01,2013-01-31 23:52:00,
2013-01-31 15:57:00,62.5,47.5,24.80,East,92,0.0,5.0,58,0.00,,---,0.00,VWS V13.01,2013-01-31 23:57:00,
2013-01-31 16:00:00,62.6,47.6,24.80,East,93,0.0,5.0,58,0.00,,---,0.00,VWS V13.01,2013-02-01 00:00:00,
2013-01-31 16:02:00,62.6,47.2,24.80,East,93,0.0,1.0,57,0.00,,---,0.00,VWS V13.01,2013-02-01 00:02:00,
2013-01-31 16:07:00,62.5,47.5,24.80,East,92,2.0,3.0,58,0.00,,---,0.00,VWS V13.01,2013-02-01 00:07:00,
2013-01-31 16:12:00,62.4,47.5,24.80,East,92,0.0,3.0,58,0.00,,---,0.00,VWS V13.01,2013-02-01 00:12:00,
2013-01-31 16:17:00,62.4,47.5,24.80,East,92,1.0,3.0,58,0.00,,---,0.00,VWS V13.01,2013-02-01 00:17:00,
2013-01-31 16:22:00,62.5,47.5,24.80,East,94,1.0,3.0,58,0.00,,---,0.00,VWS V13.01,2013-02-01 00:22:00,
2013-01-31 16:27:00,62.6,47.2,24.80,East,95,1.0,3.0,57,0.00,,---,0.00,VWS V13.01,2013-02-01 00:27:00,
2013-01-31 16:32:00,62.2,46.8,24.80,East,88,1.0,5.0,57,0.00,,---,0.00,VWS V13.01,2013-02-01 00:32:00,
2013-01-31 16:37:00,62.0,47.1,24.80,East,88,1.0,5.0,58,0.00,,---,0.00,VWS V13.01,2013-02-01 00:37:00,
2013-01-31 16:42:00,61.7,46.8,24.80,East,87,0.0,5.0,58,0.00,,---,0.00,VWS V13.01,2013-02-01 00:42:00,
2013-01-31 16:47:00,61.4,47.0,24.80,East,87,1.0,5.0,59,0.00,,---,0.00,VWS V13.01,2013-02-01 00:47:00,
2013-01-31 16:52:00,61.2,47.2,24.80,East,88,0.0,5.0,60,0.00,,---,0.00,VWS V13.01,2013-02-01 00:52:00,
2013-01-31 16:57:00,61.1,47.1,24.80,East,88,0.0,5.0,60,0.00,,---,0.00,VWS V13.01,2013-02-01 00:57:00,
2013-01-31 17:00:00,61.1,47.1,24.80,East,88,0.0,5.0,60,0.00,,---,0.00,VWS V13.01,2013-02-01 01:00:00,
2013-01-31 17:02:00,61.0,47.0,24.80,East,88,0.0,1.0,60,0.00,,---,0.00,VWS V13.01,2013-02-01 01:02:00,
2013-01-31 17:07:00,60.8,47.3,24.80,East,88,0.0,1.0,61,0.00,,---,0.00,VWS V13.01,2013-02-01 01:07:00,
2013-01-31 17:12:00,60.3,47.2,24.80,East,87,0.0,1.0,62,0.00,,---,0.00,VWS V13.01,2013-02-01 01:12:00,
2013-01-31 17:17:00,60.0,47.4,24.80,East,88,0.0,1.0,63,0.00,,---,0.00,VWS V13.01,2013-02-01 01:17:00,
2013-01-31 17:22:00,59.8,47.6,24.80,East,88,0.0,1.0,64,0.00,,---,0.00,VWS V13.01,2013-02-01 01:22:00,
2013-01-31 17:27:00,59.6,47.8,24.80,East,88,0.0,1.0,65,0.00,,---,0.00,VWS V13.01,2013-02-01 01:27:00,
2013-01-31 17:32:00,59.1,47.4,24.80,East,87,0.0,1.0,65,0.00,,---,0.00,VWS V13.01,2013-02-01 01:32:00,
2013-01-31 17:37:00,58.6,47.3,24.80,East,88,0.0,1.0,66,0.00,,---,0.00,VWS V13.01,2013-02-01 01:37:00,
2013-01-31 17:42:00,58.0,47.1,24.80,East,88,0.0,1.0,67,0.00,,---,0.00,VWS V13.01,2013-02-01 01:42:00,
2013-01-31 17:47:00,57.3,46.8,24.80,East,88,0.0,1.0,68,0.00,,---,0.00,VWS V13.01,2013-02-01 01:47:00,
2013-01-31 17:52:00,56.6,46.6,24.80,East,88,0.0,1.0,69,0.00,,---,0.00,VWS V13.01,2013-02-01 01:52:00,
2013-01-31 17:57:00,55.9,46.3,24.80,East,88,0.0,1.0,70,0.00,,---,0.00,VWS V13.01,2013-02-01 01:57:00,
2013-01-31 18:00:00,55.3,46.4,24.80,East,87,0.0,1.0,72,0.00,,---,0.00,VWS V13.01,2013-02-01 02:00:00,
2013-01-31 18:02:00,55.1,46.2,24.80,East,87,0.0,0.0,72,0.00,,---,0.00,VWS V13.01,2013-02-01 02:02:00,
2013-01-31 18:07:00,54.6,46.1,24.80,East,88,0.0,0.0,73,0.00,,---,0.00,VWS V13.01,2013-02-01 02:07:00,
2013-01-31 18:12:00,54.1,46.0,24.80,East,88,0.0,0.0,74,0.00,,---,0.00,VWS V13.01,2013-02-01 02:12:00,
2013-01-31 18:17:00,53.7,45.6,24.80,East,88,0.0,0.0,74,0.00,,---,0.00,VWS V13.01,2013-02-01 02:17:00,
2013-01-31 18:22:00,53.3,45.6,24.80,East,88,0.0,0.0,75,0.00,,---,0.00,VWS V13.01,2013-02-01 02:22:00,
2013-01-31 18:27:00,53.0,45.7,24.80,East,87,0.0,0.0,76,0.00,,---,0.00,VWS V13.01,2013-02-01 02:27:00,
2013-01-31 18:32:00,52.6,45.6,24.80,East,87,0.0,0.0,77,0.00,,---,0.00,VWS V13.01,2013-02-01 02:32:00,
2013-01-31 18:37:00,52.3,45.3,24.80,East,88,0.0,0.0,77,0.00,,---,0.00,VWS V13.01,2013-02-01 02:37:00,
2013-01-31 18:42:00,52.0,45.4,24.80,East,88,0.0,0.0,78,0.00,,---,0.00,VWS V13.01,2013-02-01 02:42:00,
2013-01-31 18:47:00,51.8,45.2,24.80,East,88,0.0,0.0,78,0.00,,---,0.00,VWS V13.01,2013-02-01 02:47:00,
2013-01-31 18:52:00,51.5,45.2,24.80,East,87,0.0,0.0,79,0.00,,---,0.00,VWS V13.01,2013-02-01 02:52:00,
2013-01-31 18:57:00,51.2,44.9,24.80,East,87,0.0,0.0,79,0.00,,---,0.00,VWS V13.01,2013-02-01 02:57:00,
2013-01-31 19:00:00,50.9,45.0,24.80,East,88,0.0,0.0,80,0.00,,---,0.00,VWS V13.01,2013-02-01 03:00:00,
2013-01-31 19:02:00,50.9,45.0,24.80,East,88,0.0,0.0,80,0.00,,---,0.00,VWS V13.01,2013-02-01 03:02:00,
2013-01-31 19:07:00,50.7,44.8,24.80,East,88,0.0,0.0,80,0.00,,---,0.00,VWS V13.01,2013-02-01 03:07:00,
2013-01-31 19:12:00,50.4,44.8,24.80,East,88,0.0,0.0,81,0.00,,---,0.00,VWS V13.01,2013-02-01 03:12:00,
2013-01-31 19:17:00,50.1,44.5,24.80,East,88,0.0,0.0,81,0.00,,---,0.00,VWS V13.01,2013-02-01 03:17:00,
2013-01-31 19:22:00,49.8,44.2,24.80,East,87,0.0,0.0,81,0.00,,---,0.00,VWS V13.01,2013-02-01 03:22:00,
2013-01-31 19:27:00,49.6,44.3,24.80,East,88,0.0,0.0,82,0.00,,---,0.00,VWS V13.01,2013-02-01 03:27:00,
2013-01-31 19:32:00,49.4,44.1,24.80,East,88,0.0,0.0,82,0.00,,---,0.00,VWS V13.01,2013-02-01 03:32:00,
2013-01-31 19:37:00,49.2,44.0,24.80,East,87,0.0,0.0,82,0.00,,---,0.00,VWS V13.01,2013-02-01 03:37:00,
2013-01-31 19:42:00,49.1,44.2,24.80,East,88,0.0,0.0,83,0.00,,---,0.00,VWS V13.01,2013-02-01 03:42:00,
2013-01-31 19:47:00,49.0,44.1,24.80,East,88,0.0,0.0,83,0.00,,---,0.00,VWS V13.01,2013-02-01 03:47:00,
2013-01-31 19:52:00,48.8,43.9,24.80,East,87,0.0,0.0,83,0.00,,---,0.00,VWS V13.01,2013-02-01 03:52:00,
2013-01-31 19:57:00,48.7,43.8,24.80,East,87,0.0,0.0,83,0.00,,---,0.00,VWS V13.01,2013-02-01 03:57:00,
2013-01-31 20:00:00,48.6,43.7,24.80,East,88,0.0,0.0,83,0.00,,---,0.00,VWS V13.01,2013-02-01 04:00:00,
2013-01-31 20:02:00,48.5,43.6,24.80,East,88,0.0,0.0,83,0.00,,---,0.00,VWS V13.01,2013-02-01 04:02:00,
2013-01-31 20:07:00,48.3,43.4,24.80,East,88,0.0,0.0,83,0.00,,---,0.00,VWS V13.01,2013-02-01 04:07:00,
2013-01-31 20:12:00,48.1,43.2,24.80,East,88,0.0,0.0,83,0.00,,---,0.00,VWS V13.01,2013-02-01 04:12:00,
2013-01-31 20:17:00,47.9,43.3,24.80,East,87,0.0,0.0,84,0.00,,---,0.00,VWS V13.01,2013-02-01 04:17:00,
2013-01-31 20:22:00,47.6,43.0,24.80,East,88,0.0,0.0,84,0.00,,---,0.00,VWS V13.01,2013-02-01 04:22:00,
2013-01-31 20:27:00,47.4,42.8,24.80,East,88,0.0,0.0,84,0.00,,---,0.00,VWS V13.01,2013-02-01 04:27:00,
2013-01-31 20:32:00,47.3,42.7,24.80,East,88,0.0,0.0,84,0.00,,---,0.00,VWS V13.01,2013-02-01 04:32:00,
2013-01-31 20:37:00,47.1,42.8,24.80,East,87,0.0,0.0,85,0.00,,---,0.00,VWS V13.01,2013-02-01 04:37:00,
2013-01-31 20:42:00,47.0,42.7,24.80,East,88,0.0,0.0,85,0.00,,---,0.00,VWS V13.01,2013-02-01 04:42:00,
2013-01-31 20:47:00,46.8,42.5,24.80,East,88,0.0,0.0,85,0.00,,---,0.00,VWS V13.01,2013-02-01 04:47:00,
2013-01-31 20:52:00,46.7,42.4,24.80,East,88,0.0,0.0,85,0.00,,---,0.00,VWS V13.01,2013-02-01 04:52:00,
2013-01-31 20:57:00,46.5,42.2,24.80,East,87,0.0,0.0,85,0.00,,---,0.00,VWS V13.01,2013-02-01 04:57:00,
2013-01-31 21:00:00,46.3,42.0,24.80,East,88,0.0,0.0,85,0.00,,---,0.00,VWS V13.01,2013-02-01 05:00:00,
2013-01-31 21:01:00,46.3,42.0,24.80,East,87,0.0,0.0,85,0.00,,---,0.00,VWS V13.01,2013-02-01 05:01:00,
2013-01-31 21:03:00,46.2,42.0,24.80,East,87,0.0,0.0,85,0.00,,---,0.00,VWS V13.01,2013-02-01 05:03:00,
2013-01-31 21:08:00,46.2,42.2,24.80,East,87,0.0,0.0,86,0.00,,---,0.00,VWS V13.01,2013-02-01 05:08:00,
2013-01-31 21:13:00,46.1,42.2,24.80,East,87,0.0,0.0,86,0.00,,---,0.00,VWS V13.01,2013-02-01 05:13:00,
2013-01-31 21:18:00,46.0,42.0,24.80,East,88,0.0,0.0,86,0.00,,---,0.00,VWS V13.01,2013-02-01 05:18:00,
2013-01-31 21:23:00,46.0,42.0,24.80,East,88,0.0,0.0,86,0.00,,---,0.00,VWS V13.01,2013-02-01 05:23:00,
2013-01-31 21:28:00,45.9,42.0,24.80,East,88,0.0,0.0,86,0.00,,---,0.00,VWS V13.01,2013-02-01 05:28:00,
2013-01-31 21:33:00,45.7,41.8,24.80,East,87,0.0,0.0,86,0.00,,---,0.00,VWS V13.01,2013-02-01 05:33:00,
2013-01-31 21:38:00,45.6,41.7,24.80,East,87,0.0,0.0,86,0.00,,---,0.00,VWS V13.01,2013-02-01 05:38:00,
2013-01-31 21:43:00,45.5,41.9,24.80,East,88,0.0,0.0,87,0.00,,---,0.00,VWS V13.01,2013-02-01 05:43:00,
2013-01-31 21:48:00,45.4,41.5,24.80,East,88,0.0,0.0,86,0.00,,---,0.00,VWS V13.01,2013-02-01 05:48:00,
2013-01-31 21:53:00,45.2,41.3,24.80,East,88,0.0,0.0,86,0.00,,---,0.00,VWS V13.01,2013-02-01 05:53:00,
2013-01-31 21:58:00,45.0,41.4,24.80,East,87,0.0,0.0,87,0.00,,---,0.00,VWS V13.01,2013-02-01 05:58:00,
2013-01-31 22:00:00,44.9,41.3,24.80,East,88,0.0,0.0,87,0.00,,---,0.00,VWS V13.01,2013-02-01 06:00:00,
2013-01-31 22:03:00,44.9,41.3,24.80,East,88,0.0,0.0,87,0.00,,---,0.00,VWS V13.01,2013-02-01 06:03:00,
2013-01-31 22:08:00,44.7,41.1,24.80,East,87,0.0,0.0,87,0.00,,---,0.00,VWS V13.01,2013-02-01 06:08:00,
2013-01-31 22:13:00,44.6,41.0,24.80,East,87,0.0,0.0,87,0.00,,---,0.00,VWS V13.01,2013-02-01 06:13:00,
2013-01-31 22:18:00,44.6,41.0,24.80,East,88,0.0,0.0,87,0.00,,---,0.00,VWS V13.01,2013-02-01 06:18:00,
2013-01-31 22:23:00,44.5,40.9,24.80,East,88,0.0,0.0,87,0.00,,---,0.00,VWS V13.01,2013-02-01 06:23:00,
2013-01-31 22:28:00,44.5,40.9,24.80,East,88,0.0,0.0,87,0.00,,---,0.00,VWS V13.01,2013-02-01 06:28:00,
2013-01-31 22:33:00,44.3,40.7,24.80,East,87,0.0,0.0,87,0.00,,---,0.00,VWS V13.01,2013-02-01 06:33:00,
2013-01-31 22:38:00,44.5,41.2,24.80,East,88,0.0,0.0,88,0.00,,---,0.00,VWS V13.01,2013-02-01 06:38:00,
2013-01-31 22:43:00,44.5,41.2,24.80,East,88,0.0,0.0,88,0.00,,---,0.00,VWS V13.01,2013-02-01 06:43:00,
2013-01-31 22:48:00,44.3,40.7,24.80,East,87,0.0,0.0,87,0.00,,---,0.00,VWS V13.01,2013-02-01 06:48:00,
2013-01-31 22:53:00,44.1,40.8,24.80,East,87,0.0,0.0,88,0.00,,---,0.00,VWS V13.01,2013-02-01 06:53:00,
2013-01-31 22:58:00,43.9,40.3,24.80,East,88,0.0,0.0,87,0.00,,---,0.00,VWS V13.01,2013-02-01 06:58:00,
2013-01-31 23:00:00,43.7,40.4,24.80,East,88,0.0,0.0,88,0.00,,---,0.00,VWS V13.01,2013-02-01 07:00:00,
2013-01-31 23:03:00,43.7,40.4,24.80,East,88,0.0,0.0,88,0.00,,---,0.00,VWS V13.01,2013-02-01 07:03:00,
2013-01-31 23:08:00,43.6,40.3,24.80,East,88,0.0,0.0,88,0.00,,---,0.00,VWS V13.01,2013-02-01 07:08:00,
2013-01-31 23:13:00,43.4,40.1,24.80,East,87,0.0,0.0,88,0.00,,---,0.00,VWS V13.01,2013-02-01 07:13:00,
2013-01-31 23:18:00,43.3,40.0,24.80,East,88,0.0,0.0,88,0.00,,---,0.00,VWS V13.01,2013-02-01 07:18:00,
2013-01-31 23:23:00,43.2,39.9,24.80,East,88,0.0,0.0,88,0.00,,---,0.00,VWS V13.01,2013-02-01 07:23:00,
2013-01-31 23:28:00,43.0,39.7,24.80,East,88,0.0,0.0,88,0.00,,---,0.00,VWS V13.01,2013-02-01 07:28:00,
2013-01-31 23:33:00,42.9,39.6,24.80,East,88,0.0,0.0,88,0.00,,---,0.00,VWS V13.01,2013-02-01 07:33:00,
2013-01-31 23:38:00,42.8,39.5,24.80,East,87,0.0,0.0,88,0.00,,---,0.00,VWS V13.01,2013-02-01 07:38:00,
2013-01-31 23:43:00,42.7,39.4,24.80,East,88,0.0,0.0,88,0.00,,---,0.00,VWS V13.01,2013-02-01 07:43:00,
2013-01-31 23:48:00,42.5,39.2,24.80,East,88,0.0,0.0,88,0.00,,---,0.00,VWS V13.01,2013-02-01 07:48:00,
2013-01-31 23:53:00,42.4,39.1,24.80,East,87,0.0,0.0,88,0.00,,---,0.00,VWS V13.01,2013-02-01 07:53:00,
2013-01-31 23:58:00,42.3,39.0,24.80,East,88,0.0,0.0,88,0.00,,---,0.00,VWS V13.01,2013-02-01 07:58:00,